« Back
NWS Peachtree City, Ga » Text Product » GA Regional Weather Roundup


Printer-friendly Version
Current Version              Previous Versions:   1  2  3  4  5  6  7  8  9  

Regional Weather Roundup

561
ASUS42 KFFC 050403
RWRGA
WEATHER ROUNDUP FOR GEORGIA
NATIONAL WEATHER SERVICE PEACHTREE CITY GA
1200 AM EDT SAT SEP 05 2015

NOTE: "FAIR" INDICATES FEW OR NO CLOUDS BELOW 12,000 FEET WITH NO
SIGNIFICANT WEATHER AND/OR OBSTRUCTIONS TO VISIBILITY.

* = USE WITH CAUTION. THE STATIONS MARKED WITH AN ASTERISK MAY NOT
REPORT WEATHER SUCH AS PRECIPITATION, FOG, OR THUNDER AND ARE NOT
QUALITY CONTROLLED BY NWS.

THE REMARK "TC" DENOTES TEMPERATURE READING IN DEGREES CELSIUS.

GAZ001>058-050500-
NORTH GEORGIA

CITY           SKY/WX    TMP DP  RH WIND       PRES   REMARKS
ATLANTA        PTCLDY    78  68  71 CALM      30.03F
ATHENS         PTCLDY    78  70  76 NE9       30.05R
CHAMBLEE       CLEAR     72  71  97 CALM      30.04S
PEACHTREE CITY CLEAR     73  72  96 CALM      30.03F FOG
ROME           CLEAR     74  70  87 CALM      30.02S
WEST ATLANTA   CLEAR     71  69  93 CALM      30.03S
GAINESVILLE    MOCLDY    77  68  73 E7        30.09R
CARTERSVILLE   CLEAR     69  69 100 CALM      30.04S


CITY           SKY/WX    TMP DP  RH WIND       PRES   REMARKS
DALTON*        CLEAR     72  72 100 CALM      30.03S
MARIETTA       CLEAR     74  70  87 CALM      30.04S
BLAIRSVILLE*     N/A     68  60  76 CALM      30.13R HAZE
$$

GAZ059>098-102>109-050500-
CENTRAL GEORGIA

CITY           SKY/WX    TMP DP  RH WIND       PRES   REMARKS
AUGUSTA-BUSH   PTCLDY    73  73 100 CALM      30.03R FOG
AUGUSTA-DANIEL PTCLDY    78  72  81 VRB6      30.05R
COLUMBUS       CLEAR     79  71  76 SE12      29.99S
MACON          CLEAR     72  70  93 CALM      30.01R
ROBINS AFB     CLEAR     74  71  92 SE1       30.00S FOG


CITY           SKY/WX    TMP DP  RH WIND       PRES   REMARKS
LAGRANGE*      CLEAR     79  79 100 CALM      30.01F
MILLEDGEVILLE* CLEAR     75  72  88 CALM      30.01S
$$

GAZ099>101-110>166-050500-
SOUTH GEORGIA

CITY           SKY/WX    TMP DP  RH WIND       PRES   REMARKS
SAVANNAH       MOCLDY    74  71  91 CALM      30.01S
VALDOSTA       MOCLDY    73  73 100 CALM      29.99F
ALMA           PTCLDY    72  71  97 CALM      30.00F
ST SIMONS      MOCLDY    78  72  81 CALM      30.00S
FT STEWART     CLEAR     74  72  92 CALM      29.98F
ALBANY         PTCLDY    78  70  76 S6        30.01S
HUNTER AFB     CLEAR     76  76 100 N3        29.99R
MOODY AFB      MOCLDY    75  72  90 S1        29.97F
BRUNSWICK      MOCLDY    75  73  94 CALM      30.02R


CITY           SKY/WX    TMP DP  RH WIND       PRES   REMARKS
BAINBRIDGE*    PTCLDY    77  72  83 CALM      29.98F
MOULTRIE*      PTCLDY    77  72  83 S6        30.00F
VIDALIA*       CLEAR     75  72  88 CALM      30.02S
WAYCROSS*      PTCLDY    75  75 100 CALM      30.00S
DOUGLAS*       MOCLDY    75  72  88 SW3       30.01F
$$



USA.gov is the U.S. government's official web portal to all federal, state and local government web resources and services.